Location: Bli��� Lhota
(48.7570°N, 14.0120°E)
Time: 08:40:40
(UTC+00:00)

Lacrosse 4 Rocket - Pass Details

Date: 18 September 2020
Orbit: 543 x 615 km, 68.0° (Epoch: 27 October)

Event Time Altitude Azimuth Distance (km) Brightness Sun altitude
Rises 20:58:56 0° 328° (NNW) 2,717 5.9 -33.6°
Reaches altitude 10° 21:01:08 10° 330° (NNW) 1,823 4.8 -33.8°
Enters shadow 21:02:08 17° 332° (NNW) 1,429 4.1 -33.9°
